{"data":{"norad_id":65690,"intl_designator":"2025-212Q","name":"STARLINK-34790","alt_names":[],"object_type":"PAYLOAD","status":"ACTIVE","operator":null,"country":"US","launch_date":"2025-09-21","launch_site_code":"AFETR","launch_vehicle":null,"mission":null,"orbit_class":"UNKNOWN","rcs_meters":null,"size_class":null,"mass_kg":null,"dimensions":null,"purposes":["comms"],"wikipedia_slug":null,"has_3d_model":false,"image_url":null,"decayed_at":null,"tle_current":{"epoch":"2026-05-24T23:48:59.817600Z","epoch_age_seconds":69549,"freshness":"FRESH","line1":"1 65690U 25212Q   26144.99235900  .00020154  00000+0  69047-3 0  9992","line2":"2 65690  53.1598 351.4130 0000289  92.4291 267.6743 15.30211970 38872","mean_motion":15.3021197,"eccentricity":2.89e-5,"inclination_deg":53.1598,"raan_deg":351.413,"arg_perigee_deg":92.4291,"mean_anomaly_deg":267.6743,"bstar":0.00069047,"rev_number":3887,"period_min":94.104609572489,"perigee_km":474.98126854799,"apogee_km":475.37739023183,"semimajor_km":6853.3163293899,"source":"CELESTRAK","updated_at":"2026-05-25T13:38:20.896635Z"}}}